User: anonymous   Login
Location: Unspecified
(0.0000°N, 0.0000°E)
Time: 13:43:25
(UTC+00:00)
Language:

CP3 - Orbit

View from above orbital plane
View from above orbital plane
View from above satellite
View from above satellite

Ground track
Ground track

The orbit data is extracted from the following two-line orbital elements,

1 31129U 07012N   17114.82307847 +.00000515 +00000-0 +11920-3 0  9996
2 31129 098.0747 066.2735 0095888 004.1288 356.0680 14.56486983531701
Epoch (UTC): 24 April 2017 19:45:13
Eccentricity: 0.0095888
inclination: 98.0747°
perigee height: 636 km
apogee height: 772 km
right ascension of ascending node: 66.2735°
argument of perigee: 4.1288°
revolutions per day: 14.56486983
mean anomaly at epoch: 356.0680°
orbit number at epoch: 53170

The dashed part of the orbit path shows where the satellite is in the earth's shadow,  

DLR